Location: Audrecelles
(50.8240°N, 1.5923°E)
Time: 03:10:40
(UTC+00:00)

Cosmos 44 - Pass Details

Date: 20 October 2025
Orbit: 576 x 774 km, 65.1° (Epoch: 13 November)

Event Time Altitude Azimuth Distance (km) Brightness Sun altitude
Exits shadow 03:55:42 24° 335° (NNW) 1,487 4.9 -24.2°
Maximum altitude 03:58:37 52° 42° (NE) 911 4.1 -23.7°
Drops below altitude 10° 04:03:44 10° 119° (ESE) 2,284 6.6 -22.9°
Sets 04:06:14 0° 124° (SE) 3,223 7.4 -22.5°
